Regional Weather Roundup
Issued by NWS

Home | Current Version | Previous Version | Text Only | Print | Product List | Glossary On
Versions: 1 2 3 4 5 6 7 8 9 10 11 12 13 14 15 16 17 18 19 20 21 22 23 24 25 26 27 28 29 30 31 32 33 34 35 36 37 38 39 40 41 42 43 44 45 46 47 48 49 50
235
ASUS45 KABQ 230001
RWRNM
NEW MEXICO REGIONAL WEATHER ROUNDUP
NATIONAL WEATHER SERVICE ALBUQUERQUE NM
600 PM MDT TUE MAY 22 2018

NOTE: "FAIR" MEANS FEW OR NO CLOUDS BELOW 12,000 FEET AGL WITH NO
       SIGNIFICANT WEATHER OR OBSTRUCTIONS TO VISION.

      THIS PRODUCT IS RELEASED AS TWO VERSIONS.  ONE VERSION NEAR
      THE TOP OF THE HOUR CONTAINING PRELIMINARY DATA FROM ALBUQUERQUE
      AND OTHER STATIONS.  A FINAL VERSION WITH ADDITIONAL DATA IS
      ISSUED ABOUT 10 MINUTES AFTER THE HOUR.

NMZ501-503-504-510>518-230100-
NORTHWEST PLATEAU/NORTHCENTRAL MOUNTAINS

CITY           SKY/WX    TMP DP  RH WIND       PRES   REMARKS
FARMINGTON     FAIR      78  25  14 NW20G25   29.87S
6HR MIN TEMP:  72; 6HR MAX TEMP:  79;

LOS ALAMOS     PTSUNNY   67  46  46 SE5       30.05S
SANTA FE       CLOUDY    66  55  67 SE22G29   30.00R
6HR MIN TEMP:  60; 6HR MAX TEMP:  72; 6HR PCP:  0.11;

TAOS           FAIR      63  45  51 SE22      30.09F
ANGEL FIRE     PTSUNNY   47  43  85 S6        30.20F

$$
NMZ402-403-502-505>509-230100-
WESTCENTRAL MOUNTAINS/SOUTHWEST MOUNTAINS

CITY           SKY/WX    TMP DP  RH WIND       PRES   REMARKS
GALLUP         FAIR      75  16  10 MISG      29.94S
6HR MIN TEMP:  72; 6HR MAX TEMP:  80;

GRANTS         FAIR      78  11   8 S17G26    29.97S
SILVER CITY    FAIR      81  13   7 SW14G21   29.95S

$$
NMZ407-409-411-412-230100-
SOUTHERN DESERTS

CITY           SKY/WX    TMP DP  RH WIND       PRES   REMARKS
DEMING         FAIR      88  12   6 SW14G22   29.87F
6HR MIN TEMP:  81; 6HR MAX TEMP:  90;

LAS CRUCES     FAIR      89  22   9 S12G17    29.89F
ALAMOGORDO     FAIR      88  37  16 SW13G18   29.86F
T OR C         FAIR      86   6   5 S18G29    29.89S
6HR MIN TEMP:  80; 6HR MAX TEMP:  88;


$$
NMZ519>523-230100-
CENTRAL VALLEYS/CENTRAL HIGHLANDS

CITY           SKY/WX    TMP DP  RH WIND       PRES   REMARKS
ALBUQUERQUE    FAIR      82  23  11 S20G31    29.91F
6HR MIN TEMP:  74; 6HR MAX TEMP:  83;

DOUBLE EAGLE   MOSUNNY   81  23  12 S20G31    29.94F
MORIARTY ARPT  FAIR      71  54  55 SE17G26   30.01S
6HR MIN TEMP:  67; 6HR MAX TEMP:  80; 6HR PCP:  0.01;

CLINES CORNERS PTSUNNY   64  50  60 S15G25    30.07R
6HR MIN TEMP:  60; 6HR MAX TEMP:  71; 6HR PCP:  0.05;

BELEN          FAIR      83  23  11 S25G32    29.90F
6HR MIN TEMP:  76; 6HR MAX TEMP:  84;

SOCORRO        FAIR      84  15   7 S22G29    29.89S
6HR MIN TEMP:  77; 6HR MAX TEMP:  86;


$$
NMZ524>526-539-540-230100-
SOUTHCENTRAL MOUNTAINS

CITY           SKY/WX    TMP DP  RH WIND       PRES   REMARKS
RUIDOSO        NOT AVBL

$$
NMZ527>531-230100-
NORTHEAST HIGHLANDS/NORTHEAST PLAINS

CITY           SKY/WX    TMP DP  RH WIND       PRES   REMARKS
LAS VEGAS      LGT RAIN  62  51  67 S14       30.07S
6HR MIN TEMP:  61; 6HR MAX TEMP:  73; 6HR PCP:  0.01;

RATON          FAIR      70  35  27 S25G33    30.03R
6HR MIN TEMP:  70; 6HR MAX TEMP:  81;

CLAYTON        FAIR      75  52  44 S21       29.97S
6HR MIN TEMP:  71; 6HR MAX TEMP:  78;


$$
NMZ532>537-230100-
EASTCENTRAL PLAINS

CITY           SKY/WX    TMP DP  RH WIND       PRES   REMARKS
SANTA ROSA     FAIR      74  55  49 S15G23    29.96R
TUCUMCARI      FAIR      79  56  45 S12       29.90F
6HR MIN TEMP:  77; 6HR MAX TEMP:  83;

CANNON AFB     NOT AVBL
CLOVIS AIRPORT FAIR      78  57  48 S13       29.97F

$$
NMZ028-029-538-230100-
SOUTHEAST PLAINS

CITY           SKY/WX    TMP DP  RH WIND       PRES   REMARKS
ROSWELL        FAIR      84  54  35 SE16      29.87F
6HR MIN TEMP:  73; 6HR MAX TEMP:  86;

ARTESIA        FAIR      86  55  35 SE18G24   29.87F
CARLSBAD       FAIR      87  54  32 SE13      29.85F
6HR MIN TEMP:  78; 6HR MAX TEMP:  89;

HOBBS          MOSUNNY   84  54  34 SE14G26   29.93F


$$




USA.gov is the U.S. government's official web portal to all federal, state and local government web resources and services.